M I D A S
Marine Information and Data Acquisition System
Tripno 2059 of the Zeeleeuw from 2011-03-16 07:51:13 to 2011-03-16 15:12:10
Back to CruiseResearch ActivitiesStationsMapUnderway DataData graphs

EquipmentUnitsComments
TimeDGPSUTC
LatitudeDGPSDM.mWGS84
LongitudeDGPSDM.mWGS84
SpeedMeteo Stationm/sRelative wind speed
DirectionMeteo StationdegRelative wind direction
TemperatureMeteo Stationdeg CelciusAir temperature
PressureMeteo StationPaAtmospheric pressure
HumidityMeteo Station%Relative humidity
Missing or incorrect values are displayed as -999
Metereological data collected by the RV Zeeleeuw from 2011-03-16 07:52:53 to 2011-03-16 15:19:00
                                                                                    Next 1000 lines
Time Latitude Longitude Speed Direction Temperature Pressure Humidity
2011-03-16 07:53:02 51°13.661 2°55.956 2.6 279 8.1 101090 48
2011-03-16 07:53:08 51°13.662 2°55.952 3 318 8.1 101090 46
2011-03-16 07:53:13 51°13.662 2°55.949 4.1 284 8.1 101090 46
2011-03-16 07:53:17 51°13.663 2°55.946 3.5 27 8.1 101100 46
2011-03-16 07:53:22 51°13.664 2°55.941 1 279 8.1 101100 46
2011-03-16 07:53:28 51°13.666 2°55.935 2.6 25 8.1 101100 48
2011-03-16 07:53:33 51°13.667 2°55.929 1.2 279 8.1 101100 48
2011-03-16 07:53:38 51°13.669 2°55.923 1.5 23 8.2 101100 47
2011-03-16 07:53:44 51°13.67 2°55.915 3.4 281 8.2 101100 47
2011-03-16 07:53:49 51°13.672 2°55.908 1.2 19 8.2 101100 47
2011-03-16 07:53:53 51°13.673 2°55.902 0.5 283 8.2 101100 47
2011-03-16 07:53:58 51°13.674 2°55.895 0.1 22 8.2 101100 46
2011-03-16 07:54:04 51°13.676 2°55.885 0.1 282 8.2 101100 46
2011-03-16 07:54:09 51°13.677 2°55.877 0.5 21 8.2 101100 49
2011-03-16 07:54:13 51°13.679 2°55.87 0.2 282 8.2 101100 49
2011-03-16 07:54:19 51°13.68 2°55.861 0.9 26 8.2 101100 46
2011-03-16 07:54:24 51°13.681 2°55.854 2.2 287 8.2 101100 46
2011-03-16 07:54:28 51°13.682 2°55.848 1 27 8.2 101100 46
2011-03-16 07:54:33 51°13.684 2°55.841 0.2 282 8.2 101100 46
2011-03-16 07:54:38 51°13.685 2°55.833 3.8 26 8.2 101100 47
2011-03-16 07:54:44 51°13.686 2°55.825 3.3 281 8.2 101100 47
2011-03-16 07:54:48 51°13.687 2°55.82 4.5 21 8.2 101100 47
2011-03-16 07:54:53 51°13.688 2°55.813 2.6 280 8.2 101100 47
2011-03-16 07:54:58 51°13.689 2°55.808 3.7 316 8.2 101100 45
2011-03-16 07:55:04 51°13.69 2°55.802 2 279 8.2 101100 45
2011-03-16 07:55:09 51°13.691 2°55.797 1.7 22 8.2 101090 44
2011-03-16 07:55:13 51°13.692 2°55.794 3.8 281 8.2 101090 44
2011-03-16 07:55:18 51°13.693 2°55.79 2.5 23 8.2 101100 45
2011-03-16 07:55:23 51°13.693 2°55.787 2.1 284 8.2 101100 45
2011-03-16 07:55:28 51°13.694 2°55.785 3.3 21 8.2 101090 46
2011-03-16 07:55:33 51°13.694 2°55.782 1.1 283 8.2 101090 46
2011-03-16 07:55:37 51°13.695 2°55.78 1.5 246 8.2 101100 45
2011-03-16 07:55:42 51°13.696 2°55.777 0.4 287 8.2 101100 45
2011-03-16 07:55:47 51°13.697 2°55.774 1.4 260 8.2 101100 47
2011-03-16 07:55:52 51°13.699 2°55.77 1.3 282 8.2 101100 47
2011-03-16 07:55:57 51°13.701 2°55.766 1.1 255 8.2 101100 46
2011-03-16 07:56:02 51°13.703 2°55.761 2.7 285 8.2 101100 46
2011-03-16 07:56:08 51°13.706 2°55.755 4.7 260 8.2 101100 46
2011-03-16 07:56:13 51°13.708 2°55.75 3.1 284 8.2 101100 46
2011-03-16 07:56:18 51°13.711 2°55.745 4.8 260 8.3 101100 45
2011-03-16 07:56:24 51°13.715 2°55.738 2.5 283 8.3 101100 45
2011-03-16 07:56:29 51°13.719 2°55.732 1.3 259 8.3 101100 48
2011-03-16 07:56:33 51°13.722 2°55.728 4.5 285 8.3 101100 48
2011-03-16 07:56:39 51°13.726 2°55.721 4.6 264 8.3 101100 48
2011-03-16 07:56:45 51°13.731 2°55.714 3 284 8.3 101100 48
2011-03-16 07:56:49 51°13.735 2°55.71 5.1 259 8.3 101100 45
2011-03-16 07:56:53 51°13.738 2°55.706 3.4 286 8.3 101100 45
2011-03-16 07:56:59 51°13.744 2°55.699 3.3 260 8.3 101100 45
2011-03-16 07:57:05 51°13.749 2°55.693 3.8 280 8.3 101100 45
2011-03-16 07:57:09 51°13.754 2°55.689 6.1 24 8.3 101100 48
2011-03-16 07:57:13 51°13.758 2°55.685 5.2 73 8.3 101100 48
2011-03-16 07:57:18 51°13.764 2°55.68 2.3 268 8.2 101100 47
2011-03-16 07:57:24 51°13.771 2°55.674 3.3 279 8.2 101100 47
2011-03-16 07:57:29 51°13.777 2°55.669 4.9 266 8.3 101100 47
2011-03-16 07:57:33 51°13.782 2°55.665 4.2 287 8.3 101100 47
2011-03-16 07:57:38 51°13.788 2°55.661 3.8 270 8.2 101100 48
2011-03-16 07:57:44 51°13.796 2°55.656 1.1 79 8.2 101100 48
2011-03-16 07:57:49 51°13.803 2°55.651 4.8 21 8.2 101100 44
2011-03-16 07:57:53 51°13.808 2°55.648 4.9 80 8.2 101100 44
2011-03-16 07:57:59 51°13.816 2°55.643 5.5 270 8.2 101100 45
2011-03-16 07:58:03 51°13.822 2°55.64 6.4 81 8.2 101100 45
2011-03-16 07:58:10 51°13.832 2°55.635 5.5 27 8.2 101100 45
2011-03-16 07:58:14 51°13.838 2°55.632 9.5 82 8.2 101100 45
2011-03-16 07:58:18 51°13.843 2°55.629 10.3 26 8.2 101100 47
2011-03-16 07:58:23 51°13.85 2°55.626 10.1 285 8.2 101100 47
2011-03-16 07:58:28 51°13.857 2°55.624 8.1 14 8.2 101110 47
2011-03-16 07:58:33 51°13.864 2°55.621 7.8 281 8.2 101110 47
2011-03-16 07:58:38 51°13.871 2°55.62 9.1 22 8.2 101110 47
2011-03-16 07:58:44 51°13.879 2°55.618 7.9 76 8.2 101110 47
2011-03-16 07:58:49 51°13.886 2°55.617 7.6 25 8.2 101130 46
2011-03-16 07:58:53 51°13.891 2°55.617 5.9 284 8.2 101130 46
2011-03-16 07:58:58 51°13.898 2°55.617 7.3 24 8.2 101110 45
2011-03-16 07:59:04 51°13.905 2°55.618 6.4 74 8.2 101110 45
2011-03-16 07:59:08 51°13.91 2°55.619 6.4 22 8.2 101110 46
2011-03-16 07:59:13 51°13.916 2°55.62 6.8 75 8.2 101110 46
2011-03-16 07:59:18 51°13.922 2°55.622 5.1 24 8.1 101100 47
2011-03-16 07:59:24 51°13.928 2°55.625 6 75 8.1 101100 47
2011-03-16 07:59:28 51°13.932 2°55.626 5.4 24 8.1 101100 45
2011-03-16 07:59:33 51°13.937 2°55.629 4.6 76 8.1 101100 45
2011-03-16 07:59:38 51°13.941 2°55.632 4.6 22 8.1 101100 44
2011-03-16 07:59:43 51°13.945 2°55.635 5.1 75 8.1 101100 44
2011-03-16 07:59:48 51°13.949 2°55.637 4.3 23 8.1 101090 47
2011-03-16 07:59:53 51°13.952 2°55.639 3.9 79 8.1 101090 47
2011-03-16 07:59:57 51°13.954 2°55.641 6.2 23 8.1 101100 47
2011-03-16 08:00:03 51°13.956 2°55.643 5.1 78 8.1 101100 47
2011-03-16 08:00:09 51°13.958 2°55.644 2.9 25 8.1 101100 44
2011-03-16 08:00:14 51°13.959 2°55.645 3.6 77 8.1 101100 44
2011-03-16 08:00:18 51°13.96 2°55.645 4.8 22 8.1 101090 45
2011-03-16 08:00:22 51°13.96 2°55.645 2 79 8.1 101090 45
2011-03-16 08:00:28 51°13.961 2°55.645 5.4 23 8.1 101090 47
2011-03-16 08:00:33 51°13.961 2°55.643 4.3 80 8.1 101090 47
2011-03-16 08:00:37 51°13.96 2°55.64 5.6 19 8.1 101090 48
2011-03-16 08:00:41 51°13.96 2°55.636 5.3 80 8.1 101090 48
2011-03-16 08:00:46 51°13.96 2°55.632 4.2 45 8.1 101090 47
2011-03-16 08:00:52 51°13.96 2°55.627 4.8 38 8.1 101090 47
2011-03-16 08:00:57 51°13.961 2°55.622 4.2 38 8.2 101090 47
2011-03-16 08:01:01 51°13.961 2°55.619 3.7 80 8.2 101090 47
2011-03-16 08:01:06 51°13.962 2°55.614 2.9 36 8.2 101080 48
2011-03-16 08:01:11 51°13.963 2°55.608 2.2 32 8.2 101080 48
2011-03-16 08:01:16 51°13.964 2°55.602 3.5 31 8.2 101080 47
2011-03-16 08:01:21 51°13.966 2°55.596 3.4 31 8.2 101080 47
2011-03-16 08:01:25 51°13.968 2°55.59 5.1 23 8.2 101080 44
2011-03-16 08:01:30 51°13.971 2°55.582 5.1 19 8.2 101080 44
2011-03-16 08:01:36 51°13.974 2°55.572 5.3 34 8.2 101080 45
2011-03-16 08:01:41 51°13.977 2°55.563 4.2 26 8.2 101080 45
2011-03-16 08:01:46 51°13.981 2°55.554 0.7 16 8.2 101080 48
2011-03-16 08:01:49 51°13.983 2°55.548 1.5 16 8.2 101080 48
2011-03-16 08:01:56 51°13.989 2°55.534 2.7 25 8.2 101080 47
2011-03-16 08:02:01 51°13.995 2°55.525 4.3 23 8.2 101080 47
2011-03-16 08:02:05 51°13.999 2°55.517 5.1 25 8.2 101080 45
2011-03-16 08:02:09 51°14.004 2°55.51 2.7 26 8.2 101080 45
2011-03-16 08:02:16 51°14.012 2°55.497 3.1 5 8.2 101080 47
2011-03-16 08:02:21 51°14.019 2°55.488 3.7 10 8.2 101080 47
2011-03-16 08:02:26 51°14.025 2°55.48 3.5 5 8.2 101080 46
2011-03-16 08:02:31 51°14.033 2°55.472 2.9 355 8.2 101080 46
2011-03-16 08:02:36 51°14.04 2°55.464 4.3 2 8.2 101080 44
2011-03-16 08:02:41 51°14.047 2°55.456 1.8 3 8.2 101080 44
2011-03-16 08:02:46 51°14.055 2°55.448 2 352 8.2 101080 45
2011-03-16 08:02:51 51°14.064 2°55.44 3.7 360 8.2 101080 45
2011-03-16 08:02:55 51°14.071 2°55.434 4.6 357 8.2 101090 45
2011-03-16 08:03:01 51°14.082 2°55.426 4.6 356 8.2 101090 45
2011-03-16 08:03:06 51°14.093 2°55.419 4.6 347 8.2 101080 44
2011-03-16 08:03:11 51°14.103 2°55.413 3 281 8.2 101080 44
2011-03-16 08:03:16 51°14.114 2°55.407 4.8 349 8.1 101080 45
2011-03-16 08:03:21 51°14.125 2°55.401 5.6 352 8.1 101080 45
2011-03-16 08:03:26 51°14.136 2°55.394 5.4 354 8.1 101080 48
2011-03-16 08:03:30 51°14.145 2°55.389 5.6 356 8.1 101080 48
2011-03-16 08:03:36 51°14.159 2°55.381 7.1 349 8.2 101080 47
2011-03-16 08:03:41 51°14.171 2°55.375 7.6 356 8.2 101080 47
2011-03-16 08:03:46 51°14.182 2°55.367 6.7 358 8.2 101080 45
2011-03-16 08:03:50 51°14.192 2°55.361 6.1 358 8.2 101080 45
2011-03-16 08:03:56 51°14.206 2°55.352 4.8 358 8.2 101070 45
2011-03-16 08:04:01 51°14.218 2°55.343 5.7 346 8.2 101070 45
2011-03-16 08:04:06 51°14.229 2°55.335 6 349 8.1 101070 46
2011-03-16 08:04:11 51°14.241 2°55.326 7.4 352 8.1 101070 46
2011-03-16 08:04:15 51°14.25 2°55.319 9 356 8.1 101080 47
2011-03-16 08:04:21 51°14.265 2°55.307 7.6 357 8.1 101080 47
2011-03-16 08:04:26 51°14.277 2°55.297 7.9 -999 8 101090 44
2011-03-16 08:04:31 51°14.288 2°55.286 7.6 -999 8 101090 44
2011-03-16 08:04:35 51°14.298 2°55.278 8.4 358 8 101080 47
2011-03-16 08:04:41 51°14.312 2°55.265 7.6 354 8 101080 47
2011-03-16 08:04:46 51°14.323 2°55.253 6.9 358 7.9 101070 47
2011-03-16 08:04:51 51°14.334 2°55.242 8.5 355 7.9 101070 47
2011-03-16 08:04:54 51°14.341 2°55.234 8.5 359 7.8 101070 45
2011-03-16 08:05:01 51°14.358 2°55.218 7.3 354 7.8 101070 45
2011-03-16 08:05:05 51°14.367 2°55.208 7.7 356 7.8 101070 47
2011-03-16 08:05:10 51°14.378 2°55.195 8.8 354 7.8 101070 47
2011-03-16 08:05:16 51°14.392 2°55.18 8.5 357 7.7 101070 47
2011-03-16 08:05:21 51°14.404 2°55.167 8.2 357 7.7 101070 47
2011-03-16 08:05:26 51°14.415 2°55.153 8.6 356 7.6 101070 46
2011-03-16 08:05:31 51°14.427 2°55.14 8 356 7.6 101070 46
2011-03-16 08:05:36 51°14.439 2°55.127 9.2 357 7.6 101060 47
2011-03-16 08:05:41 51°14.451 2°55.114 8.5 356 7.6 101060 47
2011-03-16 08:05:46 51°14.463 2°55.1 8.2 356 7.5 101070 45
2011-03-16 08:05:51 51°14.476 2°55.087 7.6 357 7.5 101070 45
2011-03-16 08:05:56 51°14.489 2°55.074 7.8 357 7.5 101070 47
2011-03-16 08:06:01 51°14.502 2°55.061 9.1 354 7.5 101070 47
2011-03-16 08:06:05 51°14.513 2°55.052 9.9 355 7.4 101060 46
2011-03-16 08:06:10 51°14.527 2°55.039 9.1 355 7.4 101060 46
2011-03-16 08:06:14 51°14.538 2°55.03 9.3 355 7.4 101070 47
2011-03-16 08:06:21 51°14.558 2°55.013 10.3 356 7.4 101070 47
2011-03-16 08:06:25 51°14.57 2°55.003 9.2 358 7.3 101070 46
2011-03-16 08:06:29 51°14.582 2°54.992 9 358 7.3 101070 46
2011-03-16 08:06:36 51°14.602 2°54.973 9.5 358 7.3 101060 47
2011-03-16 08:06:41 51°14.617 2°54.959 9.3 356 7.3 101060 47
2011-03-16 08:06:46 51°14.632 2°54.945 8.4 357 7.3 101060 46
2011-03-16 08:06:51 51°14.647 2°54.931 8.1 356 7.3 101060 46
2011-03-16 08:06:56 51°14.662 2°54.916 8.9 359 7.2 101060 48
2011-03-16 08:07:01 51°14.676 2°54.9 9 360 7.2 101060 48
2011-03-16 08:07:06 51°14.69 2°54.884 10.3 357 7.2 101060 47
2011-03-16 08:07:11 51°14.705 2°54.868 9.6 358 7.2 101060 47
2011-03-16 08:07:15 51°14.717 2°54.856 9.2 356 7.2 101060 48
2011-03-16 08:07:21 51°14.734 2°54.837 9.5 355 7.2 101060 48
2011-03-16 08:07:26 51°14.749 2°54.821 9.1 359 7.1 101060 47
2011-03-16 08:07:31 51°14.763 2°54.804 9.8 357 7.1 101060 47
2011-03-16 08:07:35 51°14.775 2°54.791 8.4 357 7.1 101050 48
2011-03-16 08:07:41 51°14.791 2°54.771 9.9 357 7.1 101050 48
2011-03-16 08:07:46 51°14.805 2°54.753 8.8 359 7.1 101060 48
2011-03-16 08:07:51 51°14.819 2°54.735 9.8 358 7.1 101060 48
2011-03-16 08:07:56 51°14.833 2°54.718 7.7 357 7 101060 47
2011-03-16 08:08:01 51°14.847 2°54.701 9.1 358 7 101060 47
2011-03-16 08:08:06 51°14.862 2°54.685 9.8 357 7 101060 48
2011-03-16 08:08:10 51°14.874 2°54.672 9.7 356 7 101060 48
2011-03-16 08:08:16 51°14.891 2°54.652 8.3 357 7 101060 47
2011-03-16 08:08:21 51°14.906 2°54.636 9.1 357 7 101060 47
2011-03-16 08:08:26 51°14.921 2°54.619 9.6 357 7 101070 47
2011-03-16 08:08:30 51°14.932 2°54.606 8.5 358 7 101070 47
2011-03-16 08:08:35 51°14.947 2°54.59 9.9 357 7 101060 48
2011-03-16 08:08:41 51°14.965 2°54.57 8.9 356 7 101060 48
2011-03-16 08:08:46 51°14.98 2°54.554 8.3 357 6.9 101070 49
2011-03-16 08:08:50 51°14.992 2°54.541 9.8 359 6.9 101070 49
2011-03-16 08:08:56 51°15.009 2°54.522 8.7 357 6.9 101070 48
2011-03-16 08:09:01 51°15.024 2°54.505 9 357 6.9 101070 48
2011-03-16 08:09:06 51°15.038 2°54.489 9.2 357 6.9 101070 46
2011-03-16 08:09:11 51°15.052 2°54.472 8.5 357 6.9 101070 46
2011-03-16 08:09:16 51°15.066 2°54.456 10.7 358 6.9 101070 48
2011-03-16 08:09:21 51°15.081 2°54.438 9.5 359 6.9 101070 48
2011-03-16 08:09:26 51°15.095 2°54.422 8.6 359 6.9 101070 49
2011-03-16 08:09:31 51°15.108 2°54.404 7.9 358 6.9 101070 49
2011-03-16 08:09:36 51°15.122 2°54.387 10 -999 6.8 101070 49
2011-03-16 08:09:41 51°15.136 2°54.369 9.6 360 6.8 101070 49
2011-03-16 08:09:46 51°15.15 2°54.353 10.3 -999 6.8 101060 47
2011-03-16 08:09:51 51°15.164 2°54.335 8.8 1 6.8 101060 47
2011-03-16 08:09:56 51°15.178 2°54.318 8.7 359 6.8 101070 47
2011-03-16 08:10:01 51°15.192 2°54.301 8.8 360 6.8 101070 47
2011-03-16 08:10:06 51°15.206 2°54.284 9.7 2 6.8 101060 49
2011-03-16 08:10:10 51°15.217 2°54.271 9.2 1 6.8 101060 49
2011-03-16 08:10:16 51°15.234 2°54.251 7.7 1 6.8 101060 47
2011-03-16 08:10:21 51°15.248 2°54.233 7.9 2 6.8 101060 47
2011-03-16 08:10:26 51°15.262 2°54.216 9.5 360 6.8 101060 47
2011-03-16 08:10:30 51°15.273 2°54.202 9.1 1 6.8 101060 47
2011-03-16 08:10:36 51°15.29 2°54.181 8.5 -999 6.8 101060 49
2011-03-16 08:10:41 51°15.304 2°54.164 10.2 360 6.8 101060 49
2011-03-16 08:10:46 51°15.318 2°54.147 9.2 359 6.8 101060 48
2011-03-16 08:10:50 51°15.329 2°54.133 8.6 2 6.8 101060 48
2011-03-16 08:10:56 51°15.346 2°54.113 9.3 1 6.7 101070 48
2011-03-16 08:11:01 51°15.36 2°54.096 9.2 2 6.7 101070 48
2011-03-16 08:11:06 51°15.375 2°54.079 9.6 -999 6.8 101060 47
2011-03-16 08:11:11 51°15.389 2°54.062 10.3 1 6.8 101060 47
2011-03-16 08:11:15 51°15.4 2°54.049 9.6 -999 6.7 101060 48
2011-03-16 08:11:21 51°15.417 2°54.028 9.3 360 6.7 101060 48
2011-03-16 08:11:26 51°15.431 2°54.01 7.5 1 6.7 101070 49
2011-03-16 08:11:31 51°15.445 2°53.992 8.7 2 6.7 101070 49
2011-03-16 08:11:36 51°15.458 2°53.975 8.6 360 6.7 101070 47
2011-03-16 08:11:41 51°15.472 2°53.957 8 2 6.7 101070 47
2011-03-16 08:11:46 51°15.486 2°53.939 8.5 -999 6.7 101060 49
2011-03-16 08:11:51 51°15.5 2°53.921 8.3 2 6.7 101060 49
2011-03-16 08:11:56 51°15.513 2°53.904 7.5 2 6.7 101070 47
2011-03-16 08:12:01 51°15.527 2°53.886 7.9 1 6.7 101070 47
2011-03-16 08:12:06 51°15.541 2°53.868 9 2 6.7 101070 49
2011-03-16 08:12:11 51°15.555 2°53.85 8.1 4 6.7 101070 49
2011-03-16 08:12:16 51°15.568 2°53.831 8.3 3 6.7 101070 49
2011-03-16 08:12:21 51°15.582 2°53.813 7.8 4 6.7 101070 49
2011-03-16 08:12:26 51°15.596 2°53.795 7.6 3 6.7 101070 49
2011-03-16 08:12:29 51°15.604 2°53.784 7.5 2 6.7 101070 49
2011-03-16 08:12:36 51°15.623 2°53.759 8.8 2 6.7 101060 49
2011-03-16 08:12:40 51°15.635 2°53.745 8 360 6.7 101060 49
2011-03-16 08:12:45 51°15.648 2°53.727 7.6 2 6.7 101060 48
2011-03-16 08:12:49 51°15.659 2°53.712 8.1 3 6.7 101060 48
2011-03-16 08:12:56 51°15.678 2°53.687 9 5 6.7 101070 48
2011-03-16 08:13:01 51°15.692 2°53.67 8.5 359 6.7 101070 48
2011-03-16 08:13:05 51°15.703 2°53.655 8 4 6.7 101070 49
2011-03-16 08:13:09 51°15.714 2°53.641 6.7 4 6.7 101070 49
2011-03-16 08:13:16 51°15.733 2°53.616 7.8 2 6.7 101070 49
2011-03-16 08:13:21 51°15.747 2°53.598 8.3 2 6.7 101070 49
2011-03-16 08:13:25 51°15.758 2°53.583 7.1 1 6.7 101060 49
2011-03-16 08:13:31 51°15.774 2°53.562 7.9 359 6.7 101060 49
2011-03-16 08:13:35 51°15.786 2°53.549 8.5 3 6.7 101070 48
2011-03-16 08:13:41 51°15.802 2°53.527 9.5 1 6.7 101070 48
2011-03-16 08:13:45 51°15.813 2°53.513 9.1 5 6.7 101070 47
2011-03-16 08:13:50 51°15.827 2°53.495 7.5 2 6.7 101070 47
2011-03-16 08:13:55 51°15.841 2°53.478 8.8 2 6.7 101060 49
2011-03-16 08:14:01 51°15.859 2°53.459 9.4 359 6.7 101060 49
2011-03-16 08:14:06 51°15.874 2°53.443 9.2 1 6.7 101080 49
2011-03-16 08:14:11 51°15.889 2°53.428 9.3 359 6.7 101080 49
2011-03-16 08:14:16 51°15.904 2°53.414 10.4 358 6.7 101070 47
2011-03-16 08:14:21 51°15.92 2°53.4 8.6 360 6.7 101070 47
2011-03-16 08:14:25 51°15.932 2°53.389 10.8 358 6.7 101060 49
2011-03-16 08:14:30 51°15.948 2°53.376 11.7 359 6.7 101060 49
2011-03-16 08:14:36 51°15.967 2°53.36 10.1 359 6.7 101070 49
2011-03-16 08:14:41 51°15.983 2°53.347 9.7 357 6.7 101070 49
2011-03-16 08:14:46 51°15.999 2°53.334 11.1 356 6.7 101060 48
2011-03-16 08:14:50 51°16.012 2°53.324 10 359 6.7 101060 48
2011-03-16 08:14:56 51°16.031 2°53.307 10.3 357 6.7 101060 48
2011-03-16 08:15:01 51°16.047 2°53.294 11.2 360 6.7 101060 48
2011-03-16 08:15:06 51°16.062 2°53.28 9 -999 6.7 101070 47
2011-03-16 08:15:10 51°16.075 2°53.269 9.3 359 6.7 101070 47
2011-03-16 08:15:16 51°16.094 2°53.253 10.6 359 6.7 101060 47
2011-03-16 08:15:21 51°16.11 2°53.239 10.7 -999 6.7 101060 47
2011-03-16 08:15:26 51°16.126 2°53.226 10.7 358 6.7 101060 49
2011-03-16 08:15:31 51°16.142 2°53.213 10.8 357 6.7 101060 49
2011-03-16 08:15:35 51°16.155 2°53.202 11.2 359 6.7 101060 48
2011-03-16 08:15:41 51°16.174 2°53.186 10.9 356 6.7 101060 48
2011-03-16 08:15:46 51°16.19 2°53.173 9 2 6.7 101060 48
2011-03-16 08:15:51 51°16.206 2°53.16 11.3 359 6.7 101060 48
2011-03-16 08:15:55 51°16.218 2°53.149 10.9 358 6.7 101070 48
2011-03-16 08:16:01 51°16.237 2°53.133 9.4 357 6.7 101070 48
2011-03-16 08:16:06 51°16.254 2°53.12 9.3 358 6.7 101070 49
2011-03-16 08:16:11 51°16.269 2°53.106 9.3 358 6.7 101070 49
2011-03-16 08:16:16 51°16.285 2°53.093 9.6 359 6.7 101070 49
2011-03-16 08:16:21 51°16.301 2°53.08 10.5 359 6.7 101070 49
2011-03-16 08:16:26 51°16.317 2°53.067 10.6 358 6.7 101060 48
2011-03-16 08:16:31 51°16.333 2°53.054 9.1 356 6.7 101060 48
2011-03-16 08:16:36 51°16.349 2°53.04 10.3 360 6.7 101070 49
2011-03-16 08:16:41 51°16.364 2°53.027 10.2 359 6.7 101070 49
2011-03-16 08:16:45 51°16.377 2°53.016 10.3 358 6.7 101070 49
2011-03-16 08:16:49 51°16.39 2°53.006 11.1 358 6.7 101070 49
2011-03-16 08:16:56 51°16.412 2°52.988 10.1 -999 6.7 101070 49
2011-03-16 08:17:01 51°16.428 2°52.974 10.6 356 6.7 101070 49
2011-03-16 08:17:06 51°16.443 2°52.961 9.5 357 6.7 101060 49
2011-03-16 08:17:10 51°16.456 2°52.951 9.9 359 6.7 101060 49
2011-03-16 08:17:16 51°16.474 2°52.935 9.3 359 6.7 101070 49
2011-03-16 08:17:21 51°16.49 2°52.922 10.6 358 6.7 101070 49
2011-03-16 08:17:26 51°16.506 2°52.909 10.9 356 6.7 101050 49
2011-03-16 08:17:30 51°16.519 2°52.9 10 358 6.7 101050 49
2011-03-16 08:17:36 51°16.538 2°52.885 11.5 357 6.7 101070 49
2011-03-16 08:17:41 51°16.555 2°52.874 10.5 358 6.7 101070 49
2011-03-16 08:17:46 51°16.571 2°52.863 9.7 355 6.7 101070 49
2011-03-16 08:17:50 51°16.584 2°52.854 10.6 355 6.7 101070 49
2011-03-16 08:17:56 51°16.604 2°52.842 11.8 354 6.7 101070 49
2011-03-16 08:18:00 51°16.618 2°52.834 10.5 354 6.7 101070 49
2011-03-16 08:18:06 51°16.638 2°52.822 10 355 6.7 101060 49
2011-03-16 08:18:11 51°16.655 2°52.814 9.5 354 6.7 101060 49
2011-03-16 08:18:14 51°16.665 2°52.808 12.6 353 6.7 101060 49
2011-03-16 08:18:21 51°16.689 2°52.796 9.9 -999 6.7 101060 49
2011-03-16 08:18:26 51°16.706 2°52.788 9.6 354 6.7 101060 49
2011-03-16 08:18:31 51°16.723 2°52.779 9.9 354 6.7 101060 49
2011-03-16 08:18:35 51°16.736 2°52.773 10.9 355 6.7 101070 49
2011-03-16 08:18:41 51°16.756 2°52.763 10.6 352 6.7 101070 49
2011-03-16 08:18:46 51°16.774 2°52.754 9.6 353 6.7 101050 48
2011-03-16 08:18:51 51°16.791 2°52.746 9.9 352 6.7 101050 48
2011-03-16 08:18:56 51°16.808 2°52.737 9.9 354 6.7 101070 48
2011-03-16 08:19:01 51°16.825 2°52.729 10.2 356 6.7 101070 48
2011-03-16 08:19:06 51°16.842 2°52.721 10.6 353 6.7 101070 46
2011-03-16 08:19:09 51°16.852 2°52.716 10.7 353 6.7 101070 46
2011-03-16 08:19:16 51°16.876 2°52.703 11 354 6.7 101070 49
2011-03-16 08:19:21 51°16.893 2°52.694 10.7 353 6.7 101070 49
2011-03-16 08:19:26 51°16.91 2°52.686 11.8 353 6.7 101070 48
2011-03-16 08:19:30 51°16.924 2°52.679 10.6 354 6.7 101070 48
2011-03-16 08:19:35 51°16.941 2°52.67 11.2 353 6.7 101060 48
2011-03-16 08:19:41 51°16.962 2°52.66 10.1 353 6.7 101060 48
2011-03-16 08:19:46 51°16.979 2°52.651 10.9 354 6.7 101080 48
2011-03-16 08:19:51 51°16.996 2°52.643 11 353 6.7 101080 48
2011-03-16 08:19:55 51°17.01 2°52.636 10.8 354 6.7 101070 49
2011-03-16 08:20:01 51°17.031 2°52.626 10.6 354 6.7 101070 49
2011-03-16 08:20:06 51°17.048 2°52.618 9.4 357 6.7 101070 49
2011-03-16 08:20:10 51°17.062 2°52.611 11.5 356 6.7 101070 49
2011-03-16 08:20:16 51°17.082 2°52.601 9.5 355 6.7 101070 48
2011-03-16 08:20:21 51°17.099 2°52.592 9.7 -999 6.7 101070 48
2011-03-16 08:20:26 51°17.116 2°52.583 12.3 353 6.7 101060 49
2011-03-16 08:20:31 51°17.133 2°52.575 10.3 355 6.7 101060 49
2011-03-16 08:20:36 51°17.151 2°52.567 12 354 6.7 101080 49
2011-03-16 08:20:41 51°17.168 2°52.559 10.9 353 6.7 101080 49
2011-03-16 08:20:46 51°17.186 2°52.552 11.7 353 6.6 101070 48
2011-03-16 08:20:51 51°17.203 2°52.545 10.4 353 6.6 101070 48
2011-03-16 08:20:55 51°17.217 2°52.538 10.7 353 6.6 101070 49
2011-03-16 08:21:01 51°17.238 2°52.529 12.4 352 6.6 101070 49
2011-03-16 08:21:06 51°17.255 2°52.521 9.7 355 6.6 101070 49
2011-03-16 08:21:10 51°17.269 2°52.515 11.5 356 6.6 101070 49
2011-03-16 08:21:16 51°17.29 2°52.506 11.9 354 6.6 101070 48
2011-03-16 08:21:21 51°17.307 2°52.499 12.5 355 6.6 101070 48
2011-03-16 08:21:26 51°17.325 2°52.491 12.3 353 6.6 101050 49
2011-03-16 08:21:30 51°17.339 2°52.485 10.3 354 6.6 101050 49
2011-03-16 08:21:36 51°17.36 2°52.476 10.9 353 6.6 101080 47
2011-03-16 08:21:41 51°17.377 2°52.47 11.9 351 6.6 101080 47
2011-03-16 08:21:46 51°17.395 2°52.464 12.1 353 6.6 101070 47
2011-03-16 08:21:50 51°17.41 2°52.461 9.9 350 6.6 101070 47
2011-03-16 08:21:56 51°17.432 2°52.456 11 352 6.6 101060 49
2011-03-16 08:22:01 51°17.45 2°52.453 12.4 351 6.6 101060 49
2011-03-16 08:22:06 51°17.468 2°52.45 11.8 351 6.6 101070 49
2011-03-16 08:22:10 51°17.483 2°52.449 13 351 6.6 101070 49
2011-03-16 08:22:14 51°17.498 2°52.447 13.6 352 6.6 101060 49
2011-03-16 08:22:21 51°17.524 2°52.445 11.4 -999 6.6 101060 49
2011-03-16 08:22:25 51°17.538 2°52.444 11 350 6.6 101060 48
2011-03-16 08:22:30 51°17.557 2°52.444 11 348 6.6 101060 48
2011-03-16 08:22:34 51°17.572 2°52.444 11.4 348 6.6 101070 48
2011-03-16 08:22:41 51°17.597 2°52.444 12.6 350 6.6 101070 48
2011-03-16 08:22:46 51°17.616 2°52.444 12.2 349 6.6 101050 49
2011-03-16 08:22:50 51°17.63 2°52.444 10.7 348 6.6 101050 49
2011-03-16 08:22:56 51°17.652 2°52.445 12.6 348 6.6 101070 48
2011-03-16 08:23:01 51°17.671 2°52.445 10.9 279 6.6 101070 48
2011-03-16 08:23:05 51°17.686 2°52.445 11.3 348 6.6 101060 48
2011-03-16 08:23:10 51°17.704 2°52.445 12.3 349 6.6 101060 48
2011-03-16 08:23:16 51°17.726 2°52.445 11.2 349 6.6 101070 48
2011-03-16 08:23:21 51°17.745 2°52.446 11.7 278 6.6 101070 48
2011-03-16 08:23:26 51°17.763 2°52.446 12.8 350 6.6 101060 48
2011-03-16 08:23:30 51°17.778 2°52.446 12.8 350 6.6 101060 48
2011-03-16 08:23:36 51°17.8 2°52.445 11.6 349 6.6 101060 49
2011-03-16 08:23:41 51°17.819 2°52.445 12.6 351 6.6 101060 49
2011-03-16 08:23:45 51°17.833 2°52.445 13.2 350 6.6 101070 49
2011-03-16 08:23:49 51°17.848 2°52.445 12.8 349 6.6 101070 49
2011-03-16 08:23:56 51°17.874 2°52.445 12.6 349 6.6 101060 48
2011-03-16 08:24:01 51°17.892 2°52.445 12 279 6.6 101060 48
2011-03-16 08:24:06 51°17.91 2°52.445 13.9 348 6.6 101070 48
2011-03-16 08:24:10 51°17.925 2°52.444 11.2 349 6.6 101070 48
2011-03-16 08:24:16 51°17.947 2°52.445 11.1 348 6.6 101060 49
2011-03-16 08:24:21 51°17.965 2°52.445 10.7 -999 6.6 101060 49
2011-03-16 08:24:26 51°17.983 2°52.445 12.3 350 6.6 101050 46
2011-03-16 08:24:30 51°17.998 2°52.445 11.4 348 6.6 101050 46
2011-03-16 08:24:36 51°18.02 2°52.444 12.9 348 6.6 101060 49
2011-03-16 08:24:41 51°18.038 2°52.444 11.9 349 6.6 101060 49
2011-03-16 08:24:45 51°18.053 2°52.444 11.4 347 6.6 101060 48
2011-03-16 08:24:51 51°18.075 2°52.443 11.7 349 6.6 101060 48
2011-03-16 08:24:55 51°18.089 2°52.443 12.2 350 6.6 101060 49
2011-03-16 08:25:01 51°18.111 2°52.443 11.2 349 6.6 101060 49
2011-03-16 08:25:06 51°18.129 2°52.443 13.1 349 6.5 101060 48
2011-03-16 08:25:10 51°18.144 2°52.443 11.3 280 6.5 101060 48
2011-03-16 08:25:16 51°18.166 2°52.443 11.3 348 6.5 101060 49
2011-03-16 08:25:21 51°18.184 2°52.442 12.8 350 6.5 101060 49
2011-03-16 08:25:26 51°18.203 2°52.442 12.7 349 6.5 101050 48
2011-03-16 08:25:31 51°18.221 2°52.442 13.3 350 6.5 101050 48
2011-03-16 08:25:36 51°18.239 2°52.441 12.3 348 6.5 101040 49
2011-03-16 08:25:41 51°18.257 2°52.441 11.8 281 6.5 101040 49
2011-03-16 08:25:46 51°18.275 2°52.44 11.7 348 6.6 101040 49
2011-03-16 08:25:50 51°18.29 2°52.44 12 282 6.6 101040 49
2011-03-16 08:25:56 51°18.311 2°52.439 14 348 6.5 101050 48
2011-03-16 08:26:01 51°18.33 2°52.439 13.6 347 6.5 101050 48
2011-03-16 08:26:06 51°18.348 2°52.44 12.8 349 6.5 101050 48
2011-03-16 08:26:10 51°18.363 2°52.44 12.5 282 6.5 101050 48
2011-03-16 08:26:16 51°18.385 2°52.442 13.2 347 6.5 101040 49
2011-03-16 08:26:21 51°18.403 2°52.443 11.6 -999 6.5 101040 49
2011-03-16 08:26:26 51°18.422 2°52.444 12.6 347 6.5 101050 48
2011-03-16 08:26:30 51°18.436 2°52.446 12.2 348 6.5 101050 48
2011-03-16 08:26:36 51°18.459 2°52.447 13 347 6.5 101050 49
2011-03-16 08:26:41 51°18.477 2°52.448 12.5 348 6.5 101050 49
2011-03-16 08:26:46 51°18.495 2°52.449 11.8 348 6.5 101050 48
2011-03-16 08:26:51 51°18.514 2°52.45 12.7 279 6.5 101050 48
2011-03-16 08:26:56 51°18.532 2°52.45 13.5 349 6.5 101040 48
2011-03-16 08:27:01 51°18.551 2°52.451 13.3 348 6.5 101040 48
2011-03-16 08:27:06 51°18.569 2°52.452 11.7 347 6.5 101050 48
2011-03-16 08:27:11 51°18.587 2°52.452 12.1 281 6.5 101050 48
2011-03-16 08:27:15 51°18.602 2°52.452 12.1 349 6.5 101060 48
2011-03-16 08:27:21 51°18.624 2°52.453 12.3 282 6.5 101060 48
2011-03-16 08:27:26 51°18.642 2°52.453 12.6 347 6.5 101040 49
2011-03-16 08:27:31 51°18.66 2°52.454 12.1 282 6.5 101040 49
2011-03-16 08:27:35 51°18.675 2°52.455 11.7 348 6.5 101060 49
2011-03-16 08:27:41 51°18.697 2°52.456 13.4 283 6.5 101060 49
2011-03-16 08:27:46 51°18.715 2°52.458 12.4 349 6.5 101050 48
2011-03-16 08:27:50 51°18.73 2°52.458 12.2 279 6.5 101050 48
2011-03-16 08:27:56 51°18.752 2°52.46 13.6 347 6.5 101050 48
2011-03-16 08:28:01 51°18.77 2°52.461 12.9 280 6.5 101050 48
2011-03-16 08:28:06 51°18.789 2°52.462 12.5 347 6.5 101050 49
2011-03-16 08:28:10 51°18.803 2°52.463 13.4 282 6.5 101050 49
2011-03-16 08:28:16 51°18.825 2°52.464 11.9 346 6.5 101050 49
2011-03-16 08:28:20 51°18.84 2°52.465 11.8 -999 6.5 101050 49
2011-03-16 08:28:26 51°18.862 2°52.465 13.1 348 6.5 101040 49
2011-03-16 08:28:30 51°18.876 2°52.466 12.6 348 6.5 101040 49
2011-03-16 08:28:35 51°18.894 2°52.466 12.4 347 6.5 101050 48
2011-03-16 08:28:41 51°18.916 2°52.467 13.8 277 6.5 101050 48
2011-03-16 08:28:46 51°18.935 2°52.468 11.5 346 6.5 101050 49
2011-03-16 08:28:51 51°18.953 2°52.469 13.1 282 6.5 101050 49
2011-03-16 08:28:55 51°18.967 2°52.469 12.6 347 6.5 101050 49
2011-03-16 08:29:00 51°18.986 2°52.47 13.4 282 6.5 101050 49
2011-03-16 08:29:06 51°19.008 2°52.471 13.8 348 6.5 101050 48
2011-03-16 08:29:09 51°19.019 2°52.471 13 347 6.5 101050 48
2011-03-16 08:29:16 51°19.044 2°52.472 12.3 348 6.5 101050 49
2011-03-16 08:29:21 51°19.063 2°52.473 12.1 346 6.5 101050 49
2011-03-16 08:29:26 51°19.081 2°52.473 12 347 6.5 101050 48
2011-03-16 08:29:30 51°19.096 2°52.474 12.6 346 6.5 101050 48
2011-03-16 08:29:36 51°19.117 2°52.475 12.7 346 6.5 101040 49
2011-03-16 08:29:41 51°19.136 2°52.476 13.2 347 6.5 101040 49
2011-03-16 08:29:46 51°19.154 2°52.477 12.9 347 6.5 101050 47
2011-03-16 08:29:51 51°19.172 2°52.478 13.2 346 6.5 101050 47
2011-03-16 08:29:55 51°19.187 2°52.479 12.3 348 6.5 101060 49
2011-03-16 08:30:01 51°19.209 2°52.479 11.7 284 6.5 101060 49
2011-03-16 08:30:06 51°19.228 2°52.481 11.5 346 6.5 101050 49
2011-03-16 08:30:10 51°19.242 2°52.481 13.5 347 6.5 101050 49
2011-03-16 08:30:16 51°19.265 2°52.482 14 346 6.5 101050 49
2011-03-16 08:30:21 51°19.283 2°52.483 13.1 -999 6.5 101050 49
2011-03-16 08:30:25 51°19.298 2°52.484 13 347 6.5 101050 49
2011-03-16 08:30:30 51°19.316 2°52.485 13.4 278 6.5 101050 49
2011-03-16 08:30:36 51°19.338 2°52.485 13.4 348 6.5 101060 48
2011-03-16 08:30:41 51°19.357 2°52.485 12.7 280 6.5 101060 48
2011-03-16 08:30:46 51°19.375 2°52.486 13.7 347 6.5 101060 48
2011-03-16 08:30:50 51°19.39 2°52.486 13.4 347 6.5 101060 48
2011-03-16 08:30:56 51°19.412 2°52.486 12.6 346 6.5 101060 48
2011-03-16 08:31:01 51°19.43 2°52.487 11.6 347 6.5 101060 48
2011-03-16 08:31:06 51°19.449 2°52.487 13.4 347 6.5 101070 48
2011-03-16 08:31:10 51°19.464 2°52.488 11.5 282 6.5 101070 48
2011-03-16 08:31:15 51°19.482 2°52.488 13.5 348 6.5 101060 49
2011-03-16 08:31:21 51°19.504 2°52.489 12.3 347 6.5 101060 49
2011-03-16 08:31:26 51°19.523 2°52.49 12 346 6.5 101070 49
2011-03-16 08:31:31 51°19.541 2°52.49 13.2 347 6.5 101070 49
2011-03-16 08:31:34 51°19.552 2°52.49 6.4 347 6.6 101050 49
2011-03-16 08:31:41 51°19.578 2°52.491 13.6 282 6.6 101050 49
2011-03-16 08:31:46 51°19.596 2°52.491 12.7 346 6.6 101060 49
2011-03-16 08:31:51 51°19.615 2°52.491 11.8 346 6.6 101060 49
2011-03-16 08:31:56 51°19.633 2°52.491 11.7 345 6.6 101050 48
2011-03-16 08:32:01 51°19.652 2°52.492 12.1 281 6.6 101050 48
2011-03-16 08:32:06 51°19.67 2°52.492 13.3 347 6.5 101050 49
2011-03-16 08:32:11 51°19.688 2°52.492 13.8 347 6.5 101050 49
2011-03-16 08:32:16 51°19.707 2°52.492 13.3 347 6.5 101060 49
2011-03-16 08:32:21 51°19.725 2°52.492 12.3 -999 6.5 101060 49
2011-03-16 08:32:26 51°19.743 2°52.492 13.7 347 6.5 101050 47
2011-03-16 08:32:30 51°19.758 2°52.493 13.6 346 6.5 101050 47
2011-03-16 08:32:36 51°19.781 2°52.493 12.6 348 6.5 101050 49
2011-03-16 08:32:41 51°19.799 2°52.493 12.1 348 6.5 101050 49
2011-03-16 08:32:46 51°19.817 2°52.494 12.3 346 6.5 101050 49
2011-03-16 08:32:50 51°19.832 2°52.494 11.6 282 6.5 101050 49
2011-03-16 08:32:56 51°19.854 2°52.495 13.1 347 6.5 101060 49
2011-03-16 08:33:01 51°19.873 2°52.495 12.7 346 6.5 101060 49
2011-03-16 08:33:06 51°19.891 2°52.496 12.9 345 6.6 101060 49
2011-03-16 08:33:10 51°19.906 2°52.496 11.9 279 6.6 101060 49
2011-03-16 08:33:16 51°19.928 2°52.497 12.5 348 6.6 101060 48
2011-03-16 08:33:21 51°19.947 2°52.497 13.1 346 6.6 101060 48
2011-03-16 08:33:26 51°19.965 2°52.497 11.9 347 6.6 101060 49
2011-03-16 08:33:30 51°19.98 2°52.497 13.7 279 6.6 101060 49
2011-03-16 08:33:35 51°19.998 2°52.498 13.9 348 6.6 101060 48
2011-03-16 08:33:41 51°20.021 2°52.498 12.8 347 6.6 101060 48
2011-03-16 08:33:46 51°20.039 2°52.498 12.1 348 6.6 101050 49
2011-03-16 08:33:51 51°20.057 2°52.498 12.1 280 6.6 101050 49
2011-03-16 08:33:56 51°20.076 2°52.499 12.2 346 6.6 101060 48
2011-03-16 08:34:01 51°20.094 2°52.499 13.2 281 6.6 101060 48
2011-03-16 08:34:06 51°20.113 2°52.499 11.5 349 6.6 101070 48
2011-03-16 08:34:11 51°20.131 2°52.499 10.7 348 6.6 101070 48
2011-03-16 08:34:16 51°20.15 2°52.499 13.2 346 6.6 101070 49
2011-03-16 08:34:21 51°20.168 2°52.499 12.5 -999 6.6 101070 49
2011-03-16 08:34:26 51°20.187 2°52.499 10.9 348 6.6 101060 49
2011-03-16 08:34:31 51°20.205 2°52.5 11.8 280 6.6 101060 49
2011-03-16 08:34:36 51°20.224 2°52.5 10.5 346 6.5 101070 48
2011-03-16 08:34:41 51°20.243 2°52.5 11.7 283 6.5 101070 48
2011-03-16 08:34:46 51°20.261 2°52.5 11 347 6.6 101060 48
2011-03-16 08:34:50 51°20.275 2°52.5 11.2 278 6.6 101060 48
2011-03-16 08:34:56 51°20.298 2°52.5 11.7 346 6.6 101070 49
2011-03-16 08:35:01 51°20.316 2°52.499 11.1 348 6.6 101070 49
2011-03-16 08:35:06 51°20.335 2°52.499 12.2 345 6.6 101080 46
2011-03-16 08:35:10 51°20.349 2°52.499 12.4 345 6.6 101080 46
2011-03-16 08:35:16 51°20.372 2°52.499 11.9 348 6.6 101060 49
2011-03-16 08:35:21 51°20.39 2°52.499 10.7 283 6.6 101060 49
2011-03-16 08:35:25 51°20.405 2°52.5 11.6 347 6.6 101070 48
2011-03-16 08:35:30 51°20.423 2°52.501 12.1 283 6.6 101070 48
2011-03-16 08:35:36 51°20.446 2°52.502 13.4 345 6.6 101070 49
2011-03-16 08:35:41 51°20.464 2°52.502 11.7 281 6.6 101070 49
2011-03-16 08:35:46 51°20.483 2°52.502 11 348 6.6 101070 49
2011-03-16 08:35:50 51°20.498 2°52.502 10.9 281 6.6 101070 49
2011-03-16 08:35:55 51°20.516 2°52.502 11.7 346 6.6 101050 49
2011-03-16 08:36:01 51°20.538 2°52.503 11.4 283 6.6 101050 49
2011-03-16 08:36:06 51°20.557 2°52.503 13 346 6.6 101060 48
2011-03-16 08:36:10 51°20.572 2°52.503 12.2 346 6.6 101060 48
2011-03-16 08:36:15 51°20.59 2°52.503 11.3 345 6.6 101070 49
2011-03-16 08:36:21 51°20.612 2°52.504 12.3 -999 6.6 101070 49
2011-03-16 08:36:26 51°20.631 2°52.505 12.3 344 6.6 101070 48
2011-03-16 08:36:31 51°20.649 2°52.505 12.5 285 6.6 101070 48
2011-03-16 08:36:36 51°20.668 2°52.505 10.5 345 6.6 101070 49
2011-03-16 08:36:41 51°20.686 2°52.506 11.3 280 6.6 101070 49
2011-03-16 08:36:46 51°20.705 2°52.507 12.7 345 6.6 101070 49
2011-03-16 08:36:51 51°20.723 2°52.507 12 282 6.6 101070 49
2011-03-16 08:36:56 51°20.74 2°52.507 10.4 346 6.6 101070 49
2011-03-16 08:37:01 51°20.757 2°52.507 11.7 346 6.6 101070 49
2011-03-16 08:37:06 51°20.774 2°52.508 10 347 6.6 101080 49
2011-03-16 08:37:10 51°20.786 2°52.508 11.1 280 6.6 101080 49
2011-03-16 08:37:16 51°20.805 2°52.509 10.6 348 6.6 101070 48
2011-03-16 08:37:21 51°20.82 2°52.51 10.3 283 6.6 101070 48
2011-03-16 08:37:26 51°20.834 2°52.511 9.2 346 6.6 101080 49
2011-03-16 08:37:30 51°20.846 2°52.511 9.1 281 6.6 101080 49
2011-03-16 08:37:36 51°20.862 2°52.513 10.4 348 6.6 101060 49
2011-03-16 08:37:41 51°20.876 2°52.514 10 346 6.6 101060 49
2011-03-16 08:37:46 51°20.89 2°52.515 11.1 347 6.6 101080 47
2011-03-16 08:37:50 51°20.901 2°52.516 10.7 283 6.6 101080 47
2011-03-16 08:37:56 51°20.917 2°52.518 11.2 346 6.6 101080 49
2011-03-16 08:38:01 51°20.931 2°52.52 10.5 281 6.6 101080 49
2011-03-16 08:38:06 51°20.944 2°52.522 9.8 347 6.6 101080 49
2011-03-16 08:38:11 51°20.957 2°52.524 8.8 280 6.6 101080 49
2011-03-16 08:38:15 51°20.967 2°52.526 9.5 346 6.6 101070 49
2011-03-16 08:38:21 51°20.983 2°52.528 9.6 -999 6.6 101070 49
2011-03-16 08:38:26 51°20.996 2°52.531 9.1 344 6.6 101080 48
2011-03-16 08:38:31 51°21.009 2°52.533 9.7 278 6.6 101080 48
2011-03-16 08:38:36 51°21.022 2°52.535 9.1 347 6.6 101090 47
2011-03-16 08:38:41 51°21.035 2°52.538 8.7 281 6.6 101090 47
2011-03-16 08:38:46 51°21.048 2°52.54 9.2 346 6.5 101090 49
2011-03-16 08:38:51 51°21.061 2°52.542 9.9 282 6.5 101090 49
2011-03-16 08:38:56 51°21.074 2°52.544 9.6 345 6.5 101080 49
2011-03-16 08:39:01 51°21.087 2°52.546 9.2 282 6.5 101080 49
2011-03-16 08:39:06 51°21.1 2°52.548 9.3 344 6.5 101090 48
2011-03-16 08:39:11 51°21.113 2°52.551 9.3 281 6.5 101090 48
2011-03-16 08:39:16 51°21.126 2°52.553 8.9 344 6.5 101090 49
2011-03-16 08:39:21 51°21.139 2°52.555 9 280 6.5 101090 49
2011-03-16 08:39:26 51°21.152 2°52.557 9.7 343 6.5 101090 49
2011-03-16 08:39:30 51°21.162 2°52.559 9.7 280 6.5 101090 49
2011-03-16 08:39:35 51°21.175 2°52.562 9.5 344 6.5 101090 49
2011-03-16 08:39:41 51°21.191 2°52.566 9.5 279 6.5 101090 49
2011-03-16 08:39:46 51°21.204 2°52.569 9.2 342 6.5 101080 49
2011-03-16 08:39:50 51°21.214 2°52.572 9.5 343 6.5 101080 49
2011-03-16 08:39:56 51°21.229 2°52.577 8.9 341 6.5 101100 49
2011-03-16 08:40:01 51°21.242 2°52.581 10.8 287 6.5 101100 49
2011-03-16 08:40:06 51°21.255 2°52.585 9.6 342 6.5 101100 48
2011-03-16 08:40:10 51°21.266 2°52.588 9.6 282 6.5 101100 48
2011-03-16 08:40:16 51°21.281 2°52.593 10.4 341 6.5 101090 48
2011-03-16 08:40:21 51°21.294 2°52.598 9.6 -999 6.5 101090 48
2011-03-16 08:40:25 51°21.305 2°52.601 10 343 6.5 101090 49
2011-03-16 08:40:30 51°21.318 2°52.606 10.3 280 6.5 101090 49
2011-03-16 08:40:34 51°21.328 2°52.609 9.4 344 6.5 101090 47
2011-03-16 08:40:41 51°21.346 2°52.615 9.9 287 6.5 101090 47
2011-03-16 08:40:45 51°21.357 2°52.619 9.9 344 6.5 101080 48
2011-03-16 08:40:50 51°21.369 2°52.623 10.3 283 6.5 101080 48
2011-03-16 08:40:56 51°21.385 2°52.628 9.1 342 6.5 101090 49
2011-03-16 08:41:01 51°21.398 2°52.631 9.4 278 6.5 101090 49
2011-03-16 08:41:05 51°21.408 2°52.634 10 345 6.5 101090 48
2011-03-16 08:41:10 51°21.421 2°52.638 9.3 282 6.5 101090 48
2011-03-16 08:41:16 51°21.437 2°52.643 8.6 343 6.5 101080 48
2011-03-16 08:41:21 51°21.45 2°52.646 9.7 281 6.5 101080 48
2011-03-16 08:41:25 51°21.46 2°52.649 10.4 346 6.5 101090 49
2011-03-16 08:41:29 51°21.47 2°52.653 10.3 283 6.5 101090 49
2011-03-16 08:41:36 51°21.488 2°52.658 10.9 345 6.5 101090 49
2011-03-16 08:41:41 51°21.501 2°52.662 9.5 281 6.5 101090 49
2011-03-16 08:41:45 51°21.511 2°52.666 10.9 344 6.5 101090 49
2011-03-16 08:41:49 51°21.521 2°52.669 9.2 283 6.5 101090 49
2011-03-16 08:41:54 51°21.534 2°52.673 9.7 344 6.5 101100 50
2011-03-16 08:42:01 51°21.552 2°52.679 9.2 285 6.5 101100 50
2011-03-16 08:42:05 51°21.562 2°52.682 10.2 344 6.5 101090 49
2011-03-16 08:42:09 51°21.572 2°52.685 9.4 282 6.5 101090 49
2011-03-16 08:42:16 51°21.59 2°52.69 9.9 343 6.5 101080 49
2011-03-16 08:42:21 51°21.603 2°52.694 10.6 -999 6.5 101080 49
2011-03-16 08:42:26 51°21.616 2°52.698 8.9 344 6.5 101090 50
2011-03-16 08:42:30 51°21.626 2°52.701 9 280 6.5 101090 50
2011-03-16 08:42:36 51°21.644 2°52.705 9.9 342 6.5 101090 49
2011-03-16 08:42:41 51°21.659 2°52.71 11.8 282 6.5 101090 49
2011-03-16 08:42:45 51°21.672 2°52.713 10.7 342 6.5 101090 50
2011-03-16 08:42:50 51°21.689 2°52.717 11.9 278 6.5 101090 50
2011-03-16 08:42:54 51°21.702 2°52.721 11.2 342 6.5 101090 49
2011-03-16 08:43:01 51°21.727 2°52.727 12.9 281 6.5 101090 49
2011-03-16 08:43:05 51°21.741 2°52.731 10.9 343 6.5 101090 47
2011-03-16 08:43:10 51°21.759 2°52.735 11.6 287 6.5 101090 47
2011-03-16 08:43:14 51°21.774 2°52.739 11.6 342 6.5 101080 48
2011-03-16 08:43:21 51°21.8 2°52.745 11.9 284 6.5 101080 48
2011-03-16 08:43:25 51°21.814 2°52.749 12.4 343 6.5 101080 49
2011-03-16 08:43:29 51°21.829 2°52.753 12.1 285 6.5 101080 49
2011-03-16 08:43:36 51°21.855 2°52.76 13 343 6.5 101090 49
2011-03-16 08:43:41 51°21.874 2°52.764 12.8 282 6.5 101090 49
2011-03-16 08:43:46 51°21.893 2°52.769 12 343 6.5 101080 49
2011-03-16 08:43:49 51°21.904 2°52.772 11.1 279 6.5 101080 49
2011-03-16 08:43:55 51°21.926 2°52.778 11.3 342 6.5 101070 50
2011-03-16 08:44:01 51°21.949 2°52.784 11.9 287 6.5 101070 50
2011-03-16 08:44:05 51°21.964 2°52.788 12.1 342 6.5 101070 49
2011-03-16 08:44:09 51°21.978 2°52.792 12.6 284 6.5 101070 49
2011-03-16 08:44:16 51°22.005 2°52.8 13.6 343 6.5 101080 49
2011-03-16 08:44:21 51°22.023 2°52.805 13.7 -999 6.5 101080 49
2011-03-16 08:44:25 51°22.038 2°52.808 12.1 342 6.5 101080 49
2011-03-16 08:44:30 51°22.057 2°52.812 13.6 343 6.5 101080 49
2011-03-16 08:44:36 51°22.079 2°52.817 13.2 343 6.5 101080 49
2011-03-16 08:44:41 51°22.098 2°52.821 12.8 286 6.5 101080 49
2011-03-16 08:44:45 51°22.113 2°52.825 12 342 6.5 101080 49
2011-03-16 08:44:50 51°22.131 2°52.829 12.3 281 6.5 101080 49
2011-03-16 08:44:56 51°22.154 2°52.835 13.4 343 6.5 101080 49
2011-03-16 08:45:01 51°22.173 2°52.84 12.5 278 6.5 101080 49
2011-03-16 08:45:06 51°22.191 2°52.845 12.9 345 6.5 101070 49
2011-03-16 08:45:11 51°22.21 2°52.85 11.6 280 6.5 101070 49
2011-03-16 08:45:15 51°22.225 2°52.854 12.2 342 6.5 101080 49
2011-03-16 08:45:21 51°22.248 2°52.86 12.4 283 6.5 101080 49
2011-03-16 08:45:26 51°22.266 2°52.864 13.1 343 6.5 101080 49
2011-03-16 08:45:31 51°22.285 2°52.869 12.1 279 6.5 101080 49
2011-03-16 08:45:36 51°22.304 2°52.874 12.1 343 6.5 101070 49
2011-03-16 08:45:41 51°22.322 2°52.878 11.5 277 6.5 101070 49
2011-03-16 08:45:45 51°22.337 2°52.881 13.4 344 6.5 101070 48
2011-03-16 08:45:50 51°22.356 2°52.886 12 282 6.5 101070 48
2011-03-16 08:45:56 51°22.379 2°52.892 13 342 6.5 101070 49
2011-03-16 08:46:01 51°22.397 2°52.896 6.6 283 6.5 101070 49
2011-03-16 08:46:06 51°22.416 2°52.901 12.3 342 6.5 101080 48
2011-03-16 08:46:10 51°22.431 2°52.905 11.9 282 6.5 101080 48
2011-03-16 08:46:16 51°22.453 2°52.91 6.3 344 6.5 101070 49
2011-03-16 08:46:21 51°22.472 2°52.914 14.1 283 6.5 101070 49
2011-03-16 08:46:26 51°22.491 2°52.918 12.9 344 6.5 101090 48
2011-03-16 08:46:30 51°22.506 2°52.922 13.5 345 6.5 101090 48
2011-03-16 08:46:36 51°22.529 2°52.928 12.7 343 6.5 101080 48
2011-03-16 08:46:41 51°22.547 2°52.932 12.1 279 6.5 101080 48
2011-03-16 08:46:46 51°22.566 2°52.937 12.5 344 6.5 101080 48
2011-03-16 08:46:49 51°22.577 2°52.94 11.9 284 6.5 101080 48
2011-03-16 08:46:55 51°22.6 2°52.945 13.9 343 6.5 101070 49
2011-03-16 08:47:01 51°22.623 2°52.95 6.4 281 6.5 101070 49
2011-03-16 08:47:06 51°22.641 2°52.955 11.5 344 6.5 101080 48
2011-03-16 08:47:11 51°22.66 2°52.958 13.3 282 6.5 101080 48
2011-03-16 08:47:14 51°22.671 2°52.961 13.3 343 6.5 101070 49
2011-03-16 08:47:21 51°22.698 2°52.967 13.4 281 6.5 101070 49
2011-03-16 08:47:26 51°22.716 2°52.971 13.5 343 6.5 101080 49
2011-03-16 08:47:30 51°22.732 2°52.974 12.7 282 6.5 101080 49
2011-03-16 08:47:36 51°22.754 2°52.979 14.1 343 6.5 101070 49
2011-03-16 08:47:41 51°22.773 2°52.983 13.6 282 6.5 101070 49
2011-03-16 08:47:46 51°22.792 2°52.988 12.7 343 6.5 101070 50
2011-03-16 08:47:51 51°22.811 2°52.992 12.8 282 6.5 101070 50
2011-03-16 08:47:56 51°22.829 2°52.997 13.2 344 6.5 101070 49
2011-03-16 08:48:01 51°22.848 2°53.002 14.8 344 6.5 101070 49
2011-03-16 08:48:06 51°22.867 2°53.006 12.9 344 6.5 101060 49
2011-03-16 08:48:10 51°22.882 2°53.009 14.2 345 6.5 101060 49
2011-03-16 08:48:16 51°22.905 2°53.014 14.1 344 6.5 101080 49
2011-03-16 08:48:20 51°22.92 2°53.017 12.1 -999 6.5 101080 49
2011-03-16 08:48:26 51°22.943 2°53.022 11.6 344 6.5 101070 47
2011-03-16 08:48:29 51°22.954 2°53.025 12.4 280 6.5 101070 47
2011-03-16 08:48:36 51°22.98 2°53.031 13.4 344 6.5 101060 49
2011-03-16 08:48:41 51°22.999 2°53.035 13.1 283 6.5 101060 49
2011-03-16 08:48:46 51°23.018 2°53.039 13.4 344 6.5 101060 48
2011-03-16 08:48:50 51°23.034 2°53.042 13.2 286 6.5 101060 48
2011-03-16 08:48:56 51°23.056 2°53.046 14.5 343 6.5 101070 50
2011-03-16 08:49:00 51°23.072 2°53.05 13.3 279 6.5 101070 50
2011-03-16 08:49:06 51°23.095 2°53.055 13.8 344 6.5 101070 49
2011-03-16 08:49:11 51°23.114 2°53.06 14.5 281 6.5 101070 49
2011-03-16 08:49:15 51°23.129 2°53.064 13.9 344 6.5 101070 48
2011-03-16 08:49:21 51°23.151 2°53.069 14.4 344 6.5 101070 48
2011-03-16 08:49:26 51°23.17 2°53.073 13.6 344 6.5 101060 49
2011-03-16 08:49:30 51°23.185 2°53.077 13.7 283 6.5 101060 49
2011-03-16 08:49:35 51°23.204 2°53.081 12.6 343 6.5 101070 49
2011-03-16 08:49:40 51°23.223 2°53.086 14.3 283 6.5 101070 49
2011-03-16 08:49:46 51°23.246 2°53.091 13.7 343 6.5 101050 49
2011-03-16 08:49:51 51°23.265 2°53.095 13.6 282 6.5 101050 49
2011-03-16 08:49:56 51°23.284 2°53.099 12.6 344 6.5 101060 49
2011-03-16 08:50:01 51°23.303 2°53.103 13.3 280 6.5 101060 49
2011-03-16 08:50:06 51°23.322 2°53.107 13.5 345 6.5 101070 48
2011-03-16 08:50:10 51°23.337 2°53.111 12.6 280 6.5 101070 48
2011-03-16 08:50:16 51°23.36 2°53.115 14.5 346 6.5 101060 49
2011-03-16 08:50:21 51°23.379 2°53.119 12.6 -999 6.5 101060 49
2011-03-16 08:50:26 51°23.398 2°53.123 15 344 6.5 101060 48
2011-03-16 08:50:30 51°23.413 2°53.127 13.7 281 6.5 101060 48
2011-03-16 08:50:35 51°23.432 2°53.13 12.7 343 6.5 101060 49
2011-03-16 08:50:41 51°23.455 2°53.136 14.8 282 6.5 101060 49
2011-03-16 08:50:45 51°23.471 2°53.139 12.8 343 6.5 101060 49
2011-03-16 08:50:49 51°23.486 2°53.142 14.6 284 6.5 101060 49
2011-03-16 08:50:56 51°23.513 2°53.149 12.7 343 6.5 101060 50
2011-03-16 08:51:00 51°23.528 2°53.152 13 282 6.5 101060 50
2011-03-16 08:51:06 51°23.551 2°53.157 13.6 344 6.5 101060 48
2011-03-16 08:51:09 51°23.562 2°53.159 13.6 345 6.5 101060 48
2011-03-16 08:51:16 51°23.589 2°53.166 12.9 343 6.5 101060 48
2011-03-16 08:51:21 51°23.609 2°53.17 14.8 282 6.5 101060 48
2011-03-16 08:51:25 51°23.624 2°53.174 13.5 345 6.5 101060 49
2011-03-16 08:51:30 51°23.643 2°53.178 12.9 281 6.5 101060 49
2011-03-16 08:51:35 51°23.662 2°53.181 15.1 345 6.5 101060 48
2011-03-16 08:51:41 51°23.685 2°53.186 13.5 278 6.5 101060 48
2011-03-16 08:51:46 51°23.704 2°53.191 13.5 344 6.5 101060 48
2011-03-16 08:51:51 51°23.723 2°53.196 13.8 279 6.5 101060 48
2011-03-16 08:51:54 51°23.734 2°53.199 13.8 345 6.6 101070 50
2011-03-16 08:52:01 51°23.761 2°53.206 11.9 283 6.6 101070 50
2011-03-16 08:52:06 51°23.78 2°53.21 13.7 345 6.5 101060 50
2011-03-16 08:52:10 51°23.795 2°53.214 14.1 282 6.5 101060 50
2011-03-16 08:52:16 51°23.817 2°53.218 14.6 345 6.5 101060 48
2011-03-16 08:52:21 51°23.836 2°53.223 13.8 -999 6.5 101060 48
2011-03-16 08:52:26 51°23.855 2°53.226 13.4 344 6.5 101060 49
2011-03-16 08:52:29 51°23.866 2°53.229 12.8 278 6.5 101060 49
2011-03-16 08:52:35 51°23.889 2°53.235 13.2 345 6.5 101070 48
2011-03-16 08:52:40 51°23.908 2°53.239 13.7 281 6.5 101070 48
2011-03-16 08:52:46 51°23.93 2°53.244 13.1 346 6.5 101070 48
2011-03-16 08:52:49 51°23.942 2°53.247 13.4 345 6.5 101070 48
2011-03-16 08:52:55 51°23.964 2°53.252 13.8 344 6.5 101070 48
2011-03-16 08:53:00 51°23.983 2°53.255 13.9 282 6.5 101070 48
2011-03-16 08:53:05 51°24.002 2°53.259 13.4 346 6.5 101060 49
2011-03-16 08:53:10 51°24.021 2°53.263 15.5 282 6.5 101060 49
2011-03-16 08:53:14 51°24.036 2°53.266 13.5 344 6.5 101070 49
2011-03-16 08:53:21 51°24.063 2°53.273 14 278 6.5 101070 49
2011-03-16 08:53:26 51°24.081 2°53.277 12.1 346 6.6 101060 48
2011-03-16 08:53:30 51°24.097 2°53.281 13.4 284 6.6 101060 48
2011-03-16 08:53:34 51°24.112 2°53.285 15 345 6.6 101060 49
2011-03-16 08:53:41 51°24.138 2°53.29 12.8 281 6.6 101060 49
2011-03-16 08:53:45 51°24.154 2°53.294 12.3 344 6.5 101040 48
2011-03-16 08:53:50 51°24.172 2°53.298 14.5 284 6.5 101040 48
2011-03-16 08:53:55 51°24.191 2°53.302 12.3 345 6.6 101050 49
2011-03-16 08:54:01 51°24.214 2°53.307 13.2 283 6.6 101050 49
2011-03-16 08:54:05 51°24.229 2°53.31 15.1 344 6.6 101050 48
2011-03-16 08:54:11 51°24.252 2°53.315 13.8 277 6.6 101050 48
2011-03-16 08:54:16 51°24.271 2°53.319 13.5 344 6.6 101050 48
2011-03-16 08:54:21 51°24.29 2°53.324 13.5 282 6.6 101050 48
2011-03-16 08:54:25 51°24.305 2°53.327 13.3 346 6.6 101050 49
2011-03-16 08:54:29 51°24.32 2°53.331 12.1 280 6.6 101050 49
2011-03-16 08:54:36 51°24.347 2°53.336 14.3 346 6.6 101040 49
2011-03-16 08:54:41 51°24.366 2°53.341 13.7 284 6.6 101040 49
2011-03-16 08:54:45 51°24.381 2°53.345 12.2 343 6.6 101040 49
2011-03-16 08:54:50 51°24.4 2°53.349 13.8 282 6.6 101040 49
2011-03-16 08:54:56 51°24.423 2°53.354 13.5 343 6.6 101050 48
2011-03-16 08:55:00 51°24.438 2°53.358 14.1 282 6.6 101050 48
2011-03-16 08:55:05 51°24.457 2°53.363 13.1 343 6.6 101040 48
2011-03-16 08:55:09 51°24.473 2°53.366 13.7 284 6.6 101040 48
2011-03-16 08:55:16 51°24.499 2°53.373 11.8 344 6.6 101050 48
2011-03-16 08:55:21 51°24.518 2°53.377 12 277 6.6 101050 48
2011-03-16 08:55:25 51°24.534 2°53.381 14.5 344 6.6 101050 48
2011-03-16 08:55:29 51°24.549 2°53.384 14.1 284 6.6 101050 48
2011-03-16 08:55:34 51°24.568 2°53.388 14.6 346 6.6 101040 48
2011-03-16 08:55:41 51°24.594 2°53.395 13.8 285 6.6 101040 48
2011-03-16 08:55:45 51°24.609 2°53.399 13.9 345 6.6 101050 48
2011-03-16 08:55:50 51°24.628 2°53.402 14.5 347 6.6 101050 48
2011-03-16 08:55:54 51°24.643 2°53.406 15 346 6.6 101050 49
2011-03-16 08:56:01 51°24.67 2°53.411 14.6 283 6.6 101050 49
2011-03-16 08:56:05 51°24.685 2°53.414 12.8 346 6.6 101050 48
2011-03-16 08:56:09 51°24.7 2°53.418 13.9 279 6.6 101050 48
2011-03-16 08:56:16 51°24.726 2°53.424 12.3 344 6.6 101050 49
2011-03-16 08:56:21 51°24.745 2°53.428 12.6 284 6.6 101050 49
2011-03-16 08:56:25 51°24.761 2°53.431 13.1 346 6.6 101050 47
2011-03-16 08:56:30 51°24.78 2°53.435 14.1 346 6.6 101050 47
2011-03-16 08:56:36 51°24.802 2°53.439 12.5 343 6.6 101040 49
2011-03-16 08:56:41 51°24.821 2°53.443 12.8 282 6.6 101040 49
2011-03-16 08:56:45 51°24.837 2°53.446 15.3 345 6.6 101050 49
2011-03-16 08:56:50 51°24.856 2°53.45 14.7 282 6.6 101050 49
2011-03-16 08:56:54 51°24.871 2°53.454 10.6 345 6.6 101050 49
2011-03-16 08:57:01 51°24.897 2°53.46 15.3 283 6.6 101050 49
2011-03-16 08:57:05 51°24.912 2°53.463 14.2 348 6.6 101040 48
2011-03-16 08:57:10 51°24.931 2°53.467 14 348 6.6 101040 48
2011-03-16 08:57:15 51°24.95 2°53.471 12.7 346 6.6 101040 49
2011-03-16 08:57:20 51°24.968 2°53.475 12.3 -999 6.6 101040 49
2011-03-16 08:57:25 51°24.987 2°53.478 12.4 346 6.6 101050 49
2011-03-16 08:57:29 51°25.002 2°53.481 12.7 282 6.6 101050 49
2011-03-16 08:57:35 51°25.025 2°53.486 13.4 345 6.6 101050 49
2011-03-16 08:57:40 51°25.044 2°53.49 12.5 347 6.6 101050 49
2011-03-16 08:57:45 51°25.062 2°53.494 11.7 345 6.6 101040 49
2011-03-16 08:57:49 51°25.078 2°53.496 15.6 346 6.6 101040 49
2011-03-16 08:57:56 51°25.104 2°53.5 13.5 346 6.6 101050 48
2011-03-16 08:58:01 51°25.122 2°53.503 12.7 281 6.6 101050 48
2011-03-16 08:58:05 51°25.137 2°53.505 14.4 345 6.6 101050 50
2011-03-16 08:58:10 51°25.156 2°53.509 12 280 6.6 101050 50
2011-03-16 08:58:14 51°25.171 2°53.512 13.2 345 6.6 101050 49
2011-03-16 08:58:21 51°25.197 2°53.517 12.7 278 6.6 101050 49
2011-03-16 08:58:25 51°25.212 2°53.52 13.4 347 6.6 101040 49
2011-03-16 08:58:30 51°25.23 2°53.523 12.2 277 6.6 101040 49
2011-03-16 08:58:34 51°25.245 2°53.527 13.8 346 6.6 101050 48
2011-03-16 08:58:41 51°25.272 2°53.531 14.2 281 6.6 101050 48
2011-03-16 08:58:45 51°25.286 2°53.533 13.1 346 6.6 101050 49
2011-03-16 08:58:50 51°25.305 2°53.536 12.2 284 6.6 101050 49
2011-03-16 08:58:56 51°25.328 2°53.539 11.8 346 6.6 101050 49
2011-03-16 08:59:01 51°25.346 2°53.542 13.7 282 6.6 101050 49
2011-03-16 08:59:05 51°25.362 2°53.545 12.4 347 6.6 101030 48
2011-03-16 08:59:10 51°25.38 2°53.549 13.4 284 6.6 101030 48
2011-03-16 08:59:16 51°25.403 2°53.553 13.7 345 6.6 101040 48
2011-03-16 08:59:21 51°25.421 2°53.557 14.7 281 6.6 101040 48
2011-03-16 08:59:25 51°25.436 2°53.559 15.7 346 6.6 101040 49
2011-03-16 08:59:29 51°25.451 2°53.562 14.4 283 6.6 101040 49
2011-03-16 08:59:36 51°25.477 2°53.568 13.4 345 6.6 101050 49
2011-03-16 08:59:40 51°25.492 2°53.57 13.2 344 6.6 101050 49
2011-03-16 08:59:45 51°25.511 2°53.573 14.3 346 6.6 101050 49
2011-03-16 08:59:49 51°25.526 2°53.576 12.9 282 6.6 101050 49
2011-03-16 08:59:56 51°25.552 2°53.58 12 345 6.6 101040 48
2011-03-16 09:00:01 51°25.571 2°53.584 15.7 283 6.6 101040 48
2011-03-16 09:00:05 51°25.586 2°53.586 14.1 345 6.6 101050 49
2011-03-16 09:00:09 51°25.601 2°53.589 11.5 281 6.6 101050 49
2011-03-16 09:00:16 51°25.627 2°53.593 12.2 344 6.6 101040 49
2011-03-16 09:00:21 51°25.646 2°53.597 12.6 281 6.6 101040 49
2011-03-16 09:00:26 51°25.665 2°53.599 12.4 346 6.6 101050 48
2011-03-16 09:00:31 51°25.684 2°53.603 12.8 283 6.6 101050 48
2011-03-16 09:00:36 51°25.702 2°53.606 15 347 6.6 101050 48
2011-03-16 09:00:41 51°25.721 2°53.609 12.8 347 6.6 101050 48
2011-03-16 09:00:46 51°25.74 2°53.612 14.1 345 6.6 101050 48
2011-03-16 09:00:51 51°25.759 2°53.616 14.8 285 6.6 101050 48
2011-03-16 09:00:55 51°25.774 2°53.618 13.2 344 6.6 101040 49
2011-03-16 09:01:01 51°25.797 2°53.623 14.2 346 6.6 101040 49
2011-03-16 09:01:06 51°25.816 2°53.627 12.7 345 6.6 101050 49
2011-03-16 09:01:11 51°25.835 2°53.63 11.9 279 6.6 101050 49
2011-03-16 09:01:14 51°25.846 2°53.632 14.5 345 6.6 101040 48
2011-03-16 09:01:21 51°25.873 2°53.637 12.6 346 6.6 101040 48
2011-03-16 09:01:26 51°25.892 2°53.641 12.4 347 6.6 101050 48
2011-03-16 09:01:31 51°25.911 2°53.644 12.7 282 6.6 101050 48
2011-03-16 09:01:36 51°25.93 2°53.647 15 345 6.6 101050 49
2011-03-16 09:01:41 51°25.949 2°53.651 12.2 346 6.6 101050 49
2011-03-16 09:01:46 51°25.968 2°53.654 13.8 346 6.6 101040 47
2011-03-16 09:01:49 51°25.979 2°53.656 15.7 282 6.6 101040 47
2011-03-16 09:01:56 51°26.006 2°53.661 12.4 345 6.6 101050 49
2011-03-16 09:02:01 51°26.025 2°53.665 13.4 347 6.6 101050 49
2011-03-16 09:02:06 51°26.043 2°53.668 15.2 345 6.6 101050 49
2011-03-16 09:02:10 51°26.058 2°53.671 13 285 6.6 101050 49
2011-03-16 09:02:16 51°26.081 2°53.675 13.3 348 6.6 101050 48
2011-03-16 09:02:21 51°26.1 2°53.679 11 278 6.6 101050 48
2011-03-16 09:02:26 51°26.119 2°53.682 11.8 347 6.6 101050 48
2011-03-16 09:02:31 51°26.137 2°53.685 12 283 6.6 101050 48
2011-03-16 09:02:35 51°26.152 2°53.687 14.3 346 6.6 101040 48
2011-03-16 09:02:41 51°26.175 2°53.691 13.2 282 6.6 101040 48
2011-03-16 09:02:46 51°26.194 2°53.694 14.2 346 6.6 101040 49
2011-03-16 09:02:50 51°26.209 2°53.697 12.8 347 6.6 101040 49
2011-03-16 09:02:56 51°26.232 2°53.701 12.3 345 6.6 101050 49
2011-03-16 09:03:01 51°26.251 2°53.705 12.6 346 6.6 101050 49
2011-03-16 09:03:06 51°26.27 2°53.708 12.3 345 6.6 101040 48
2011-03-16 09:03:11 51°26.289 2°53.711 14.6 281 6.6 101040 48
2011-03-16 09:03:15 51°26.304 2°53.714 14.9 347 6.6 101040 49
2011-03-16 09:03:21 51°26.327 2°53.718 14.9 -999 6.6 101040 49
2011-03-16 09:03:26 51°26.346 2°53.721 15.2 347 6.6 101040 49
2011-03-16 09:03:31 51°26.365 2°53.725 11.4 280 6.6 101040 49
2011-03-16 09:03:34 51°26.377 2°53.727 15 345 6.7 101040 48
2011-03-16 09:03:41 51°26.403 2°53.733 13.3 278 6.7 101040 48
2011-03-16 09:03:46 51°26.423 2°53.736 14.7 345 6.6 101040 48
2011-03-16 09:03:51 51°26.442 2°53.739 16 349 6.6 101040 48
2011-03-16 09:03:56 51°26.461 2°53.742 11.2 346 6.6 101040 49
2011-03-16 09:04:01 51°26.48 2°53.745 13.2 348 6.6 101040 49
2011-03-16 09:04:06 51°26.499 2°53.747 12.1 346 6.6 101040 49
2011-03-16 09:04:10 51°26.515 2°53.749 13.2 348 6.6 101040 49
2011-03-16 09:04:16 51°26.538 2°53.752 11.6 345 6.6 101040 48
2011-03-16 09:04:21 51°26.557 2°53.754 14.3 347 6.6 101040 48
2011-03-16 09:04:26 51°26.576 2°53.757 11.4 346 6.6 101040 48
2011-03-16 09:04:30 51°26.591 2°53.758 12.8 281 6.6 101040 48
2011-03-16 09:04:35 51°26.61 2°53.76 12.2 348 6.6 101040 48
2011-03-16 09:04:41 51°26.633 2°53.761 12.1 281 6.6 101040 48
2011-03-16 09:04:46 51°26.652 2°53.762 15 347 6.6 101040 49
2011-03-16 09:04:51 51°26.671 2°53.762 13.9 347 6.6 101040 49
2011-03-16 09:04:55 51°26.687 2°53.763 12.2 348 6.6 101040 48
2011-03-16 09:05:01 51°26.71 2°53.763 11.9 282 6.6 101040 48
2011-03-16 09:05:06 51°26.729 2°53.764 13.8 349 6.6 101030 48
2011-03-16 09:05:10 51°26.744 2°53.765 11.8 348 6.6 101030 48
2011-03-16 09:05:16 51°26.767 2°53.765 10.9 347 6.6 101040 48
2011-03-16 09:05:21 51°26.786 2°53.766 11.5 282 6.6 101040 48
2011-03-16 09:05:26 51°26.805 2°53.766 13.5 349 6.6 101040 49
2011-03-16 09:05:30 51°26.821 2°53.766 14.2 281 6.6 101040 49
2011-03-16 09:05:36 51°26.844 2°53.767 11.5 346 6.6 101040 48
2011-03-16 09:05:41 51°26.863 2°53.767 17 348 6.6 101040 48
2011-03-16 09:05:46 51°26.882 2°53.767 14.8 347 6.6 101040 49
2011-03-16 09:05:51 51°26.901 2°53.768 14.1 346 6.6 101040 49
2011-03-16 09:05:55 51°26.916 2°53.768 14 346 6.6 101040 49
2011-03-16 09:06:01 51°26.939 2°53.77 15.5 346 6.6 101040 49
2011-03-16 09:06:06 51°26.958 2°53.77 11.5 347 6.6 101040 49
2011-03-16 09:06:10 51°26.974 2°53.771 13.6 281 6.6 101040 49
2011-03-16 09:06:16 51°26.997 2°53.773 14.9 347 6.6 101030 49
2011-03-16 09:06:21 51°27.016 2°53.774 13.7 280 6.6 101030 49
2011-03-16 09:06:26 51°27.035 2°53.774 11.9 348 6.6 101040 49
2011-03-16 09:06:30 51°27.051 2°53.775 13.7 346 6.6 101040 49
2011-03-16 09:06:36 51°27.074 2°53.777 12.8 345 6.6 101040 49
2011-03-16 09:06:41 51°27.093 2°53.777 15.2 282 6.6 101040 49
2011-03-16 09:06:46 51°27.112 2°53.778 13.6 348 6.6 101030 49
2011-03-16 09:06:50 51°27.128 2°53.779 12.9 348 6.6 101030 49
2011-03-16 09:06:56 51°27.151 2°53.781 14.9 348 6.6 101050 49
2011-03-16 09:07:01 51°27.171 2°53.782 12.5 348 6.6 101050 49
2011-03-16 09:07:06 51°27.19 2°53.783 11.2 347 6.6 101050 47
2011-03-16 09:07:10 51°27.206 2°53.784 14.2 278 6.6 101050 47
2011-03-16 09:07:16 51°27.228 2°53.785 12.8 346 6.6 101030 49
2011-03-16 09:07:21 51°27.248 2°53.786 15.8 345 6.6 101030 49
2011-03-16 09:07:25 51°27.263 2°53.787 11.5 348 6.6 101030 48
2011-03-16 09:07:31 51°27.286 2°53.788 12 277 6.6 101030 48
2011-03-16 09:07:36 51°27.305 2°53.789 14.8 347 6.6 101040 49
2011-03-16 09:07:41 51°27.325 2°53.79 14.8 283 6.6 101040 49
2011-03-16 09:07:46 51°27.344 2°53.791 14.5 348 6.6 101030 49
2011-03-16 09:07:50 51°27.36 2°53.792 15.3 281 6.6 101030 49
2011-03-16 09:07:56 51°27.383 2°53.794 13.4 348 6.6 101030 49
2011-03-16 09:08:01 51°27.402 2°53.796 12.7 282 6.6 101030 49
2011-03-16 09:08:06 51°27.421 2°53.799 14.6 347 6.7 101040 49
2011-03-16 09:08:11 51°27.441 2°53.802 12.4 284 6.7 101040 49
2011-03-16 09:08:16 51°27.46 2°53.805 14.6 348 6.6 101040 48
2011-03-16 09:08:21 51°27.479 2°53.809 13.9 283 6.6 101040 48
2011-03-16 09:08:26 51°27.498 2°53.812 12.5 346 6.7 101030 49
2011-03-16 09:08:30 51°27.514 2°53.814 15.1 281 6.7 101030 49
2011-03-16 09:08:36 51°27.537 2°53.818 12.1 346 6.6 101040 49
2011-03-16 09:08:41 51°27.556 2°53.822 14.1 346 6.6 101040 49
2011-03-16 09:08:46 51°27.576 2°53.825 13.9 349 6.7 101030 48
2011-03-16 09:08:50 51°27.591 2°53.828 15.3 279 6.7 101030 48
2011-03-16 09:08:56 51°27.614 2°53.832 13.1 346 6.7 101040 49
2011-03-16 09:09:01 51°27.633 2°53.835 13.1 346 6.7 101040 49
2011-03-16 09:09:06 51°27.652 2°53.838 11.6 346 6.7 101040 48
2011-03-16 09:09:10 51°27.668 2°53.84 13.8 281 6.7 101040 48
2011-03-16 09:09:15 51°27.687 2°53.844 15.2 347 6.7 101040 48
2011-03-16 09:09:21 51°27.71 2°53.847 13.3 -999 6.7 101040 48
2011-03-16 09:09:26 51°27.729 2°53.85 11.3 344 6.7 101040 49
2011-03-16 09:09:31 51°27.748 2°53.853 14.1 279 6.7 101040 49
2011-03-16 09:09:35 51°27.763 2°53.855 14.7 346 6.7 101040 49
2011-03-16 09:09:41 51°27.786 2°53.859 14.2 281 6.7 101040 49
2011-03-16 09:09:46 51°27.805 2°53.862 14.4 345 6.7 101030 48
2011-03-16 09:09:51 51°27.824 2°53.865 15.2 282 6.7 101030 48
2011-03-16 09:09:56 51°27.843 2°53.868 11.5 347 6.7 101050 48
2011-03-16 09:10:01 51°27.862 2°53.872 14.1 282 6.7 101050 48
2011-03-16 09:10:06 51°27.881 2°53.875 15.9 345 6.7 101040 48
2011-03-16 09:10:11 51°27.9 2°53.878 14.7 279 6.7 101040 48
2011-03-16 09:10:16 51°27.919 2°53.881 11.9 345 6.7 101050 48
2011-03-16 09:10:21 51°27.938 2°53.884 12.4 279 6.7 101050 48
2011-03-16 09:10:26 51°27.957 2°53.887 14.3 347 6.7 101040 48
2011-03-16 09:10:30 51°27.973 2°53.89 11.8 282 6.7 101040 48
2011-03-16 09:10:35 51°27.992 2°53.893 16.4 346 6.7 101040 48
2011-03-16 09:10:41 51°28.014 2°53.897 14.4 348 6.7 101040 48
2011-03-16 09:10:46 51°28.033 2°53.9 13.9 345 6.7 101040 49
2011-03-16 09:10:50 51°28.048 2°53.903 15.8 277 6.7 101040 49
2011-03-16 09:10:56 51°28.071 2°53.906 12.1 346 6.7 101040 49
2011-03-16 09:11:01 51°28.09 2°53.909 14.6 346 6.7 101040 49
2011-03-16 09:11:06 51°28.109 2°53.912 12 346 6.7 101040 49
2011-03-16 09:11:10 51°28.124 2°53.914 15.1 279 6.7 101040 49
2011-03-16 09:11:16 51°28.147 2°53.918 15.3 348 6.7 101040 49
2011-03-16 09:11:21 51°28.166 2°53.921 16.5 283 6.7 101040 49
2011-03-16 09:11:26 51°28.184 2°53.923 15.4 345 6.7 101060 48
2011-03-16 09:11:30 51°28.2 2°53.925 14.6 348 6.7 101060 48
2011-03-16 09:11:36 51°28.222 2°53.929 12.2 344 6.7 101050 49
2011-03-16 09:11:41 51°28.242 2°53.932 13.8 346 6.7 101050 49
2011-03-16 09:11:46 51°28.26 2°53.935 13.4 345 6.7 101040 49
2011-03-16 09:11:51 51°28.28 2°53.937 13.9 278 6.7 101040 49
2011-03-16 09:11:55 51°28.295 2°53.94 16 345 6.7 101050 49
2011-03-16 09:12:01 51°28.318 2°53.943 12 280 6.7 101050 49
2011-03-16 09:12:06 51°28.337 2°53.946 13.4 345 6.7 101050 49
2011-03-16 09:12:11 51°28.356 2°53.949 13.5 284 6.7 101050 49
2011-03-16 09:12:15 51°28.371 2°53.952 12.2 344 6.7 101050 49
2011-03-16 09:12:21 51°28.394 2°53.955 11.8 283 6.7 101050 49
2011-03-16 09:12:26 51°28.413 2°53.959 13.1 344 6.7 101040 47
2011-03-16 09:12:31 51°28.433 2°53.962 11 283 6.7 101040 47
2011-03-16 09:12:36 51°28.452 2°53.966 15.4 345 6.7 101050 48
2011-03-16 09:12:41 51°28.471 2°53.969 13.9 279 6.7 101050 48
2011-03-16 09:12:46 51°28.49 2°53.972 12.5 346 6.7 101050 49
2011-03-16 09:12:50 51°28.506 2°53.974 12.7 345 6.7 101050 49
2011-03-16 09:12:55 51°28.525 2°53.977 13.3 344 6.7 101050 49
2011-03-16 09:13:01 51°28.548 2°53.981 14.9 279 6.7 101050 49
2011-03-16 09:13:06 51°28.567 2°53.984 14.3 346 6.7 101090 49
2011-03-16 09:13:10 51°28.583 2°53.986 12.8 280 6.7 101090 49
2011-03-16 09:13:16 51°28.606 2°53.99 13.3 345 6.7 101070 48
2011-03-16 09:13:21 51°28.625 2°53.993 14.3 285 6.7 101070 48
2011-03-16 09:13:26 51°28.644 2°53.996 12.9 345 6.7 101050 49
2011-03-16 09:13:30 51°28.659 2°53.998 14.4 344 6.7 101050 49
2011-03-16 09:13:36 51°28.682 2°54.002 12.4 346 6.7 101060 48
2011-03-16 09:13:41 51°28.701 2°54.005 14.2 345 6.7 101060 48
2011-03-16 09:13:46 51°28.72 2°54.007 14.3 345 6.7 101060 49
2011-03-16 09:13:50 51°28.736 2°54.01 13 279 6.7 101060 49
2011-03-16 09:13:56 51°28.759 2°54.013 11.7 345 6.7 101060 49
2011-03-16 09:14:01 51°28.778 2°54.016 10.9 278 6.7 101060 49
2011-03-16 09:14:06 51°28.798 2°54.018 14.4 345 6.7 101060 49
2011-03-16 09:14:11 51°28.817 2°54.021 12.4 283 6.7 101060 49
2011-03-16 09:14:16 51°28.836 2°54.024 11.7 344 6.7 101060 49
2011-03-16 09:14:21 51°28.855 2°54.026 13.1 282 6.7 101060 49
2011-03-16 09:14:26 51°28.875 2°54.028 13.6 345 6.7 101060 48
2011-03-16 09:14:31 51°28.894 2°54.031 11.8 282 6.7 101060 48
2011-03-16 09:14:36 51°28.913 2°54.033 13.9 343 6.7 101050 48
2011-03-16 09:14:41 51°28.933 2°54.036 13.6 279 6.7 101050 48
2011-03-16 09:14:46 51°28.952 2°54.039 13.1 341 6.7 101060 48
2011-03-16 09:14:51 51°28.972 2°54.042 12.8 280 6.7 101060 48
2011-03-16 09:14:55 51°28.987 2°54.044 12.6 344 6.7 101060 48
2011-03-16 09:15:01 51°29.01 2°54.048 11.8 284 6.7 101060 48
2011-03-16 09:15:06 51°29.029 2°54.05 13.1 341 6.7 101070 48
2011-03-16 09:15:10 51°29.044 2°54.052 11.7 281 6.7 101070 48
2011-03-16 09:15:16 51°29.067 2°54.056 11.3 342 6.7 101060 49
2011-03-16 09:15:21 51°29.086 2°54.059 13 282 6.7 101060 49
2011-03-16 09:15:26 51°29.105 2°54.063 12.2 343 6.7 101060 48
2011-03-16 09:15:30 51°29.12 2°54.066 13.2 282 6.7 101060 48
2011-03-16 09:15:36 51°29.143 2°54.071 12.4 341 6.7 101060 49
2011-03-16 09:15:41 51°29.161 2°54.074 10.4 280 6.7 101060 49
2011-03-16 09:15:46 51°29.18 2°54.078 12.5 340 6.7 101070 48
2011-03-16 09:15:50 51°29.195 2°54.081 11.5 280 6.7 101070 48
2011-03-16 09:15:56 51°29.217 2°54.084 12.5 341 6.7 101060 48
2011-03-16 09:16:01 51°29.235 2°54.088 12.3 287 6.7 101060 48
2011-03-16 09:16:06 51°29.254 2°54.091 10.9 342 6.7 101070 49
2011-03-16 09:16:10 51°29.269 2°54.094 11.7 282 6.7 101070 49